TimeCET,TemperatureF,Dew PointF,Humidity,Sea Level PressureIn,VisibilityMPH,Wind Direction,Wind SpeedMPH,Gust SpeedMPH,PrecipitationIn,Events,Conditions,WindDirDegrees,DateUTC
12:25 AM,33.8,30.2,87,29.74,6.2,NNE,6.9,-,N/A,,Scattered Clouds,20,2012-12-05 23:25:00
12:55 AM,33.8,26.6,75,29.77,6.2,NW,6.9,-,N/A,,Partly Cloudy,320,2012-12-05 23:55:00
1:00 AM,35,26,60,29.78,11,NNW,11.2,,,Rain,Rain Showers,330,2012-12-06 00:00:00
1:25 AM,35.6,23.0,60,29.77,6.2,NNW,13.8,-,N/A,,Partly Cloudy,340,2012-12-06 00:25:00
1:55 AM,33.8,24.8,70,29.77,6.2,NNW,12.7,-,N/A,,Light Small Hail Showers,330,2012-12-06 00:55:00
2:25 AM,33.8,24.8,70,29.80,6.2,NNW,9.2,-,N/A,Snow,Light Snow Showers,330,2012-12-06 01:25:00
2:55 AM,32.0,26.6,80,29.80,6.2,North,8.1,-,N/A,,Partly Cloudy,350,2012-12-06 01:55:00
3:25 AM,32.0,26.6,80,29.83,6.2,North,5.8,-,N/A,,Partly Cloudy,350,2012-12-06 02:25:00
3:55 AM,32.0,26.6,80,29.83,6.2,NW,8.1,-,N/A,Snow,Light Small Hail Showers,320,2012-12-06 02:55:00
4:00 AM,32,30,89,29.86,3,NNW,13.4,,,Snow,Light Snow Showers,330,2012-12-06 03:00:00
4:25 AM,32.0,28.4,87,29.83,6.2,NNW,9.2,-,N/A,Snow-Thunderstorm,Light Thunderstorms with Small Hail,330,2012-12-06 03:25:00
4:55 AM,32.0,30.2,93,29.86,6.2,NW,8.1,-,N/A,Snow,Light Snow Showers,320,2012-12-06 03:55:00
5:25 AM,30.2,30.2,100,29.86,6.2,NW,3.5,-,N/A,Snow,Light Snow Showers,310,2012-12-06 04:25:00
5:55 AM,30.2,30.2,100,29.86,6.2,NE,4.6,-,N/A,Snow,Light Snow Showers,40,2012-12-06 04:55:00
6:25 AM,32.0,30.2,93,29.86,6.2,North,5.8,-,N/A,,Partly Cloudy,360,2012-12-06 05:25:00
6:55 AM,30.2,28.4,93,29.89,6.2,NNW,3.5,-,N/A,,Scattered Clouds,330,2012-12-06 05:55:00
7:00 AM,29,27,89,29.90,12,WNW,4.5,,,Snow,Light Snow Showers,300,2012-12-06 06:00:00
7:25 AM,28.4,26.6,93,29.89,6.2,Variable,2.3,-,N/A,,Scattered Clouds,0,2012-12-06 06:25:00
7:55 AM,28.4,26.6,93,29.92,6.2,SW,3.5,-,N/A,,Scattered Clouds,230,2012-12-06 06:55:00
8:25 AM,28.4,26.6,93,29.92,6.2,SSW,4.6,-,N/A,,Partly Cloudy,210,2012-12-06 07:25:00
8:55 AM,28.4,26.6,93,29.92,6.2,SSW,4.6,-,N/A,Snow,Light Snow Showers,200,2012-12-06 07:55:00
9:25 AM,32.0,28.4,87,29.92,6.2,West,3.5,-,N/A,,Scattered Clouds,280,2012-12-06 08:25:00
9:55 AM,32.0,28.4,87,29.95,6.2,SW,4.6,-,N/A,,Partly Cloudy,220,2012-12-06 08:55:00
10:00 AM,31,28,81,29.96,14,SSW,6.7,,,,Scattered Clouds,210,2012-12-06 09:00:00
10:25 AM,32.0,28.4,87,29.95,6.2,SW,4.6,-,N/A,,Partly Cloudy,220,2012-12-06 09:25:00
10:55 AM,33.8,28.4,81,29.95,6.2,SW,3.5,-,N/A,,Partly Cloudy,230,2012-12-06 09:55:00
11:25 AM,35.6,30.2,81,29.98,6.2,Variable,1.2,-,N/A,,Partly Cloudy,0,2012-12-06 10:25:00
11:55 AM,37.4,30.2,75,29.95,6.2,SSE,3.5,-,N/A,,Partly Cloudy,150,2012-12-06 10:55:00
12:25 PM,37.4,30.2,75,29.95,6.2,South,3.5,-,N/A,,Partly Cloudy,170,2012-12-06 11:25:00
12:55 PM,37.4,30.2,75,29.95,6.2,South,5.8,-,N/A,,Partly Cloudy,180,2012-12-06 11:55:00
1:00 PM,36,30,70,29.97,16,South,6.7,,,,Partly Cloudy,180,2012-12-06 12:00:00
1:25 PM,37.4,30.2,75,29.95,6.2,SSW,8.1,-,N/A,,Scattered Clouds,200,2012-12-06 12:25:00
1:55 PM,35.6,30.2,81,29.95,6.2,SSW,8.1,-,N/A,Snow,Light Snow Showers,200,2012-12-06 12:55:00
2:25 PM,37.4,32.0,81,29.95,6.2,SSW,10.4,-,N/A,,Scattered Clouds,200,2012-12-06 13:25:00
2:55 PM,37.4,33.8,87,29.95,6.2,SSW,10.4,-,N/A,Rain-Snow,Light Rain Showers,200,2012-12-06 13:55:00
3:25 PM,37.4,33.8,87,29.95,5.6,SSW,10.4,-,N/A,,Small Hail,210,2012-12-06 14:25:00
3:55 PM,35.6,33.8,93,29.95,6.2,SW,16.1,-,N/A,Rain-Snow,Light Rain Showers,230,2012-12-06 14:55:00
4:00 PM,35,33,91,29.96,17,SW,15.7,,,Rain,Rain,220,2012-12-06 15:00:00
4:25 PM,35.6,33.8,93,29.95,6.2,SSW,10.4,-,N/A,,Mostly Cloudy,210,2012-12-06 15:25:00
4:55 PM,35.6,32.0,87,29.95,6.2,SSW,9.2,-,N/A,,Scattered Clouds,200,2012-12-06 15:55:00
5:25 PM,35.6,32.0,87,29.92,6.2,SSW,11.5,-,N/A,Rain-Snow,Light Rain Showers,200,2012-12-06 16:25:00
5:55 PM,33.8,32.0,93,29.92,6.2,SSW,10.4,-,N/A,,Partly Cloudy,200,2012-12-06 16:55:00
6:25 PM,33.8,32.0,93,29.92,6.2,South,12.7,-,N/A,,Scattered Clouds,190,2012-12-06 17:25:00
6:55 PM,35.6,32.0,87,29.89,6.2,South,12.7,-,N/A,,Partly Cloudy,190,2012-12-06 17:55:00
7:00 PM,35,32,84,29.91,19,South,13.4,,,,Partly Cloudy,190,2012-12-06 18:00:00
7:25 PM,35.6,32.0,87,29.89,6.2,South,10.4,-,N/A,,Partly Cloudy,180,2012-12-06 18:25:00
7:55 PM,33.8,32.0,93,29.86,-9999.0,South,13.8,-,N/A,,Clear,190,2012-12-06 18:55:00
8:25 PM,33.8,30.2,87,29.86,-9999.0,South,12.7,-,N/A,,Clear,190,2012-12-06 19:25:00
8:55 PM,33.8,30.2,87,29.83,-9999.0,South,13.8,-,N/A,,Clear,180,2012-12-06 19:55:00
9:25 PM,33.8,30.2,87,29.83,-9999.0,South,16.1,-,N/A,,Clear,180,2012-12-06 20:25:00
9:55 PM,33.8,28.4,81,29.80,-9999.0,South,16.1,-,N/A,,Clear,180,2012-12-06 20:55:00
10:00 PM,34,29,74,29.82,16,South,17.9,,,,Overcast,180,2012-12-06 21:00:00
10:25 PM,33.8,28.4,81,29.80,-9999.0,South,18.4,-,N/A,,Clear,180,2012-12-06 21:25:00
10:55 PM,33.8,28.4,81,29.77,-9999.0,South,17.3,-,N/A,,Clear,180,2012-12-06 21:55:00
11:25 PM,33.8,28.4,81,29.77,-9999.0,South,16.1,-,N/A,,Clear,170,2012-12-06 22:25:00
11:55 PM,33.8,28.4,81,29.74,-9999.0,South,17.3,-,N/A,,Clear,170,2012-12-06 22:55:00